Regional Weather Roundup
Issued by NWS

Home | Current Version | Previous Version | Graphics & Text | Print | Product List | Glossary On
Versions: 1 2 3 4 5 6 7 8 9 10 11 12 13 14 15 16 17 18 19 20 21 22 23 24 25 26 27 28 29 30 31 32 33 34 35 36 37 38 39 40 41 42 43 44 45 46 47 48 49 50
000
ASUS43 KBIS 241510
RWRND

NORTH DAKOTA REGIONAL WEATHER ROUNDUP
NATIONAL WEATHER SERVICE BISMARCK ND
1000 AM CDT SUN JUL 24 2016

NOTE: "FAIR" INDICATES FEW OR NO CLOUDS BELOW 12,000 FEET WITH NO
SIGNIFICANT WEATHER AND/OR OBSTRUCTIONS TO VISIBILITY.


NDZ001>003-009>011-017-241600-
NORTHWEST NORTH DAKOTA

CITY           SKY/WX    TMP DP  RH WIND       PRES   REMARKS
WILLISTON      SUNNY     71  54  54 W8        30.05R
MINOT          SUNNY     74  55  51 W17       29.98R
MINOT AFB      SUNNY     70  56  61 NW14G22   29.96S
$$

NDZ018>021-031>035-040>046-241600-
SOUTHWEST NORTH DAKOTA

CITY           SKY/WX    TMP DP  RH WIND       PRES   REMARKS
BISMARCK       SUNNY     73  58  59 W8        30.04R
DICKINSON      SUNNY     70  52  52 W9        30.08R
GARRISON         N/A     70  58  65 NW10      30.02R
HETTINGER ARPT MOSUNNY   71  52  50 S7        30.12R
$$

NDZ004>008-012>016-024-026-027-054-241600-
NORTHEAST NORTH DAKOTA

CITY           SKY/WX    TMP DP  RH WIND       PRES   REMARKS
GRAND FORKS    MOSUNNY   74  63  68 W13       29.84S
GRND FRKS AFB  SUNNY     73  63  71 W16       29.86R
DEVILS LAKE    SUNNY     68  60  75 W16       29.92R
$$

NDZ022-023-025-028>030-036>039-047>053-241600-
SOUTHEAST NORTH DAKOTA

CITY           SKY/WX    TMP DP  RH WIND       PRES   REMARKS
FARGO          MOSUNNY   74  63  68 NW10      29.90R
JAMESTOWN      SUNNY     72  60  66 W12       29.97R
$$





USA.gov is the U.S. government's official web portal to all federal, state and local government web resources and services.